Location: Napier
(39.4830°S, 176.9170°E)
Time: 04:10:03
(UTC+13:00)

USA 238 DEB - Pass Details

Date: 24 January 2019
Orbit: 1027 x 1185 km, 63.4° (Epoch: 07 October)

Event Time Altitude Azimuth Distance (km) Brightness Sun altitude
Rises 22:15:28 0° 348° (NNW) 4,062 6.4 -16.6°
Reaches altitude 10° 22:18:18 10° 354° (N) 3,101 5.8 -17.0°
Maximum altitude 22:25:21 47° 65° (ENE) 1,508 4.1 -17.9°
Drops below altitude 10° 22:32:19 10° 136° (SE) 3,061 6.1 -18.9°
Sets 22:35:06 0° 141° (SE) 4,005 6.8 -19.2°
